Sioux Falls, SD

3:34 AM CDT on October 19, 2017 (GMT -0500)
Foss

Weather History for KFSD - October, 2013

Change the Weather History Date:

Wednesday, October 23, 2013

  Actual Average Record
Temperature  
Mean Temperature 34 °F 45 °F  
Max Temperature 40 °F 56 °F 83 °F (1899)
Min Temperature 28 °F 34 °F 13 °F (1895)
Degree Days  
Heating Degree Days 31 20  
Month to date heating degree days 336 359  
Since 1 July heating degree days 436 563  
Cooling Degree Days 0 0  
Month to date cooling degree days 3 0  
Year to date cooling degree days 787 685  
Moisture  
Dew Point 31 °F    
Average Humidity 82    
Maximum Humidity 100    
Minimum Humidity 64    
Precipitation  
Precipitation 0.05 in 0.05 in 2.62 in (2015)
Month to date precipitation 2.78 1.76  
Year to date precipitation 23.97 23.92  
Snow  
Snow T in 0.00 in 2.00 in (1906)
Month to date snowfall 0.4 0.6  
Since 1 July snowfall 0.4 0.6  
Since 1 September snowfall 0.4 0.6  
Snow Depth 0.00 in    
Sea Level Pressure  
Sea Level Pressure 30.12 in    
Wind  
Wind Speed 6 mph (NNW)    
Max Wind Speed 15 mph    
Max Gust Speed 20 mph    
Visibility 9 miles    
Events Rain , Snow    
T = Trace of Precipitation, MM = Missing Value Source: NWS Daily Summary

Daily Weather History Graph

Daily Weather History Graph

Search for Another Location

Airport or City:

Trip Planner

Search our weather history database for the weather conditions in past years. The results will help you decide how hot, cold, wet, or windy it might be!

Date:

Astronomy

Oct. 23, 2013 Rise Set
Actual Time 7:51 AM CDT 6:30 PM CDT
Civil Twilight 7:22 AM CDT 6:59 PM CDT
Nautical Twilight 6:48 AM CDT 7:33 PM CDT
Astronomical Twilight 6:15 AM CDT 8:06 PM CDT
Moon 9:58 PM CDT (10/23) 12:14 PM CDT (10/23)
Length of Visible Light 11h 37m
Length of Day
10h 39m
Waning Gibbous, 79% of the Moon is Illuminated
Oct 23
Waning Gibbous
Oct 26
Last Quarter
Nov 3
New
Nov 9
First Quarter
Nov 17
Full

Hourly Weather History & Observations

Time (CDT) Temp. Windchill Dew Point Humidity Pressure Visibility Wind Dir Wind Speed Gust Speed Precip Events Conditions
12:56 AM 28.9 °F 25.2 °F 27.0 °F 92% 30.12 in 10.0 mi West 3.5 mph - N/A   Clear
1:56 AM 28.9 °F 23.9 °F 28.0 °F 96% 30.13 in 10.0 mi West 4.6 mph - N/A   Mostly Cloudy
2:56 AM 28.0 °F - 27.0 °F 96% 30.12 in 10.0 mi Calm Calm - N/A   Clear
3:56 AM 28.9 °F - 28.0 °F 96% 30.11 in 10.0 mi Calm Calm - N/A   Mostly Cloudy
4:56 AM 30.9 °F - 28.9 °F 92% 30.10 in 10.0 mi Calm Calm - N/A   Overcast
5:56 AM 33.1 °F 30.0 °F 30.9 °F 92% 30.10 in 10.0 mi West 3.5 mph - N/A   Overcast
6:56 AM 34.0 °F - 32.0 °F 92% 30.09 in 9.0 mi Calm Calm - 0.00 in Snow Light Snow
7:48 AM 35.6 °F - 33.8 °F 93% 30.05 in 10.0 mi Calm Calm - 0.01 in Rain Light Rain
7:56 AM 35.1 °F - 33.1 °F 92% 30.09 in 9.0 mi Calm Calm - 0.01 in Rain Light Rain
8:04 AM 35.6 °F - 33.8 °F 93% 30.04 in 9.0 mi Calm Calm - 0.01 in Rain Light Rain
8:41 AM 35.6 °F - 33.8 °F 93% 30.04 in 10.0 mi Calm Calm - 0.01 in Rain Light Rain
8:56 AM 36.0 °F - 34.0 °F 93% 30.09 in 10.0 mi Calm Calm - 0.01 in Rain Light Rain
9:24 AM 35.6 °F 30.7 °F 33.8 °F 93% 30.05 in 8.0 mi NNE 5.8 mph - 0.00 in Rain Light Rain
9:56 AM 35.1 °F 30.1 °F 34.0 °F 96% 30.10 in 4.0 mi North 5.8 mph - 0.01 in Snow Light Snow
10:00 AM 33.8 °F 30.8 °F 33.8 °F 100% 30.06 in 2.0 mi NNE 3.5 mph - 0.00 in Snow Light Snow
10:05 AM 33.8 °F 29.6 °F 33.8 °F 100% 30.06 in 2.0 mi North 4.6 mph - 0.01 in Snow Light Snow
10:33 AM 35.6 °F 32.8 °F 33.8 °F 93% 30.06 in 2.0 mi North 3.5 mph - 0.01 in Snow Light Snow
10:56 AM 35.1 °F 30.1 °F 34.0 °F 96% 30.12 in 2.0 mi NNE 5.8 mph - 0.02 in Snow Light Snow
11:06 AM 35.6 °F 29.9 °F 33.8 °F 93% 30.07 in 3.0 mi NNE 6.9 mph - 0.00 in Snow Light Snow
11:24 AM 35.6 °F 29.2 °F 33.8 °F 93% 30.08 in 5.0 mi NNE 8.1 mph - 0.00 in   Overcast
11:56 AM 36.0 °F 30.3 °F 34.0 °F 93% 30.13 in 6.0 mi NNE 6.9 mph - 0.00 in Snow Light Snow
12:26 PM 39.2 °F 37.0 °F 35.6 °F 87% 30.08 in 10.0 mi North 3.5 mph - 0.00 in Rain Light Rain
12:56 PM 37.9 °F 32.1 °F 34.0 °F 86% 30.14 in 10.0 mi North 8.1 mph - 0.00 in   Overcast
1:14 PM 37.4 °F 30.8 °F 33.8 °F 87% 30.09 in 10.0 mi North 9.2 mph - N/A   Overcast
1:56 PM 37.9 °F 30.9 °F 33.1 °F 83% 30.14 in 10.0 mi North 10.4 mph - N/A   Overcast
2:40 PM 39.2 °F 33.6 °F 33.8 °F 81% 30.09 in 10.0 mi North 8.1 mph - N/A   Overcast
2:56 PM 39.9 °F 33.9 °F 33.1 °F 77% 30.14 in 10.0 mi NNW 9.2 mph - N/A   Overcast
3:26 PM 39.2 °F 33.0 °F 32.0 °F 75% 30.09 in 10.0 mi NNW 9.2 mph - N/A   Overcast
3:34 PM 39.2 °F 31.6 °F 30.2 °F 70% 30.09 in 10.0 mi NNW 12.7 mph - N/A   Overcast
3:56 PM 39.9 °F 32.9 °F 32.0 °F 73% 30.14 in 10.0 mi NNW 11.5 mph - N/A   Overcast
4:56 PM 39.0 °F 33.4 °F 30.9 °F 73% 30.16 in 10.0 mi NW 8.1 mph - N/A   Overcast
5:27 PM 39.2 °F 32.5 °F 30.2 °F 70% 30.12 in 10.0 mi North 10.4 mph - N/A   Overcast
5:40 PM 39.2 °F 32.0 °F 30.2 °F 70% 30.12 in 10.0 mi NNW 11.5 mph - N/A   Overcast
5:56 PM 37.9 °F 30.0 °F 30.0 °F 73% 30.18 in 10.0 mi North 12.7 mph - N/A   Overcast
6:56 PM 37.0 °F 29.8 °F 27.0 °F 67% 30.20 in 10.0 mi North 10.4 mph - N/A   Overcast
7:56 PM 36.0 °F 29.6 °F 26.1 °F 67% 30.21 in 10.0 mi NNW 8.1 mph - N/A   Mostly Cloudy
8:56 PM 33.1 °F 27.7 °F 26.1 °F 75% 30.21 in 10.0 mi WNW 5.8 mph - N/A   Mostly Cloudy
9:56 PM 33.1 °F 26.1 °F 27.0 °F 78% 30.22 in 10.0 mi WNW 8.1 mph - N/A   Scattered Clouds
10:56 PM 34.0 °F 27.2 °F 28.0 °F 79% 30.23 in 10.0 mi WNW 8.1 mph - N/A   Overcast
11:56 PM 35.1 °F 26.9 °F 28.0 °F 76% 30.24 in 10.0 mi NW 11.5 mph - N/A   Overcast